RADUGA 10 (12897 NORAD) Tracking and Keplerian Element Data

This shows tracking and keplerian element data for the satellite.

Feedback or suggestion? Click here.




ElementValue
Catalog12897
NameRADUGA 10
Epoch Orbit11234
Epoch Day34.70034179
Epoch Year2025
RAAN299.1037
Inclination7.8694
Eccentricity0.0003456
Argument of Perigee235.777
Mean Anonmoly295.5971
Mean Motion1.00260665
Decay Rate-1.69E-06
L11 12897U 81102A 25034.70034179 -.00000169 00000+0 00000+0 0 9999
L22 12897 7.8694 299.1037 0003456 235.7770 295.5971 1.00260665112348



Live tracking and technical data element details for RADUGA 10 (NORAD 12897). RADUGA 10 can be tracked NOW for your location showing map with azimuth and elevation plus other details from your city location.







IsCatalogInMostPopularTable: catalog: 12897, numindb: 302
Update: records affected: 1



GetName: 12897 RADUGA 10

Hit Count: updated at: Fri, 16 May 2025 10:17:33 GMT